12:54 MESZ | 07.05.2026 Profi-Wetter| Mobile Seite| Kontakt| Impressum| Datenschutz
Social

Wetterstation Litschau

aktuelles Wetter
  Temperatur Wetter Niederschlag Luftdruck Wind
Do, 12:00 Uhr 16° - 0 mm 1012 hPa 7 km/h W
Do, 11:00 Uhr 14° - 0 mm 1012 hPa 7 km/h W
Do, 10:00 Uhr 13° - 0 mm 1012 hPa 7 km/h W
Do, 09:00 Uhr 13° - 0 mm 1012 hPa 4 km/h W
Do, 08:00 Uhr 11° - 0.1 mm 1012 hPa 7 km/h SW
Do, 07:00 Uhr 10° - 0 mm 1011 hPa 7 km/h SW
Do, 06:00 Uhr 10° - 0 mm 1011 hPa 4 km/h W
Do, 05:00 Uhr 11° - 0.1 mm 1010 hPa 4 km/h W
Do, 04:00 Uhr 11° - 0.1 mm 1010 hPa 4 km/h W
Do, 03:00 Uhr 12° - 0 mm 1009 hPa 7 km/h W
Do, 02:00 Uhr 12° - 0.1 mm 1009 hPa 4 km/h W
Do, 01:00 Uhr 12° - 0 mm 1008 hPa 7 km/h W
Do, 00:00 Uhr 13° - 0.1 mm 1007 hPa 7 km/h W
Mi, 23:00 Uhr 14° - 0.1 mm 1006 hPa 7 km/h NW
Mi, 22:00 Uhr 15° - 0 mm 1006 hPa 14 km/h NW
Mi, 21:00 Uhr 16° - 0 mm 1003 hPa 0 km/h NW
Mi, 20:00 Uhr 18° - 0.1 mm 1002 hPa 4 km/h NW
Mi, 19:00 Uhr 22° - 0 mm 1001 hPa 7 km/h S
Mi, 18:00 Uhr 21° - 0 mm 1002 hPa 7 km/h SO
Mi, 17:00 Uhr 21° 0.1 mm 1002 hPa 7 km/h SO

Alle Zeitangaben MESZ